This demonstration page uses our WeatherBlox Daily Observations layout. Learn more.

Left ArrowRight Arrow

39.08367, -84.50855

Hourly Observations for April 9, 2020

Temp ( °F °C ) Dew Point ( °F °C ) Humidity (%) Winds ( mph kmh ) Pressure ( in mb ) Visibility ( mi km ) Precip ( " mm )
12:53 am 00:53 Clear with Thunderstorms 55 13 N/A N/A S 7 11 29.59 1002 10 16 0.02 0.51
1:53 am 01:53 Mostly Clear with Thunderstorms 55 13 N/A N/A SSW 5 7 29.59 1002 10 16 0.00 0.00
2:12 am 02:12 Mostly Cloudy with Thunderstorms 55 13 N/A N/A S 6 9 29.60 1002 10 16 0.00 0.00
2:20 am 02:20 Mostly Cloudy with Thunderstorms 55 13 N/A N/A Calm 29.60 1002 10 16 0.00 0.00
2:53 am 02:53 Mostly Clear with Thunderstorms 55 13 N/A N/A W 8 13 29.60 1002 10 16 0.00 0.00
3:23 am 03:23 Cloudy with Thunderstorms 57 13.9 57 13.9 100 100 W 9 15 29.62 1003 10 16 0.00 0.00
3:40 am 03:40 Cloudy with Thunderstorms 57 13.9 57 13.9 100 100 W 12 19 29.62 1003 10 16 0.00 0.00
3:53 am 03:53 Cloudy with Thunderstorms 57 13.9 57 13.9 100 100 W 7 11 29.62 1003 10 16 0.00 0.00
4:08 am 04:08 Cloudy with Thunderstorms 57 13.9 54 12.2 90 90 NNW 10 17 29.63 1003 10 16 0.00 0.00
4:22 am 04:22 Cloudy with Thunderstorms 57 13.9 53 11.7 87 87 NW 6 9 29.63 1003 10 16 0.00 0.00
4:40 am 04:40 Mostly Cloudy with Thunderstorms 56 13.3 53 11.7 90 90 WNW 6 9 29.64 1004 10 16 0.00 0.00
4:53 am 04:53 Partly Cloudy with Thunderstorms 56 13.3 51 10.6 84 84 WNW 12 19 29.63 1004 10 16 0.00 0.00
5:37 am 05:37 Cloudy with Thunderstorms 53 11.7 46 7.8 77 77 NW 14 22 29.66 1005 10 16 0.00 0.00
5:53 am 05:53 Cloudy with Thunderstorms 53 11.7 44 6.7 72 72 NW 14 22 29.67 1005 10 16 0.00 0.00
6:01 am 06:01 Cloudy with Thunderstorms 53 11.7 45 7.2 74 74 NW 12 19 29.68 1005 10 16 0.00 0.00
6:50 am 06:50 Mostly Cloudy 52 11 43 6 72 72 WNW 8 13 29.72 1006 10 16 0.00 0.00
6:53 am 06:53 Mostly Cloudy 50 10 42 5.6 74 74 WNW 9 15 29.71 1006 10 16 0.00 0.00
7:53 am 07:53 Mostly Sunny 49 9.4 39 3.9 69 69 W 14 22 29.75 1007 10 16 0.00 0.00
8:16 am 08:16 Mostly Sunny 49 9.4 36 2.2 61 61 W 23 37 29.78 1008 10 16 0.00 0.00
8:53 am 08:53 Mostly Sunny 49 9.4 32 0 52 52 W 16 26 29.77 1008 10 16 0.00 0.00
9:53 am 09:53 Mostly Sunny 50 10 29 -1.7 44 44 WNW 13 20 29.79 1009 10 16 0.00 0.00
10:53 am 10:53 Mostly Sunny 51 10.6 28 -2.2 41 41 W 13 20 29.80 1009 10 16 0.00 0.00
11:53 am 11:53 Mostly Sunny 53 11.7 26 -3.3 35 35 W 17 28 29.80 1009 10 16 0.00 0.00
12:53 pm 12:53 Sunny 54 12.2 25 -3.9 33 33 WNW 15 24 29.78 1009 10 16 0.00 0.00
1:53 pm 13:53 Partly Cloudy 56 13.3 27 -2.8 33 33 W 17 28 29.77 1008 10 16 0.00 0.00
2:53 pm 14:53 Partly Cloudy 56 13.3 21 -6.1 26 26 W 23 37 29.76 1008 10 16 0.00 0.00
3:53 pm 15:53 Mostly Sunny 57 13.9 21 -6.1 25 25 W 16 26 29.72 1007 10 16 0.00 0.00
4:53 pm 16:53 Partly Cloudy 55 12.8 20 -6.7 25 25 NW 15 24 29.72 1007 10 16 0.00 0.00
5:53 pm 17:53 Partly Cloudy 53 11.7 23 -5 31 31 W 18 30 29.76 1008 10 16 0.00 0.00
6:53 pm 18:53 Cloudy 50 10 23 -5 35 35 WNW 16 26 29.77 1008 10 16 0.00 0.00
7:53 pm 19:53 Partly Cloudy 47 8.3 27 -2.8 46 46 NW 13 20 29.80 1009 10 16 0.00 0.00
9:11 pm 21:11 Cloudy with Light Rain 41 5 35 1.7 79 79 NNW 9 15 29.88 1012 9 14 0.00 0.00
9:53 pm 21:53 Mostly Cloudy 40 4.4 35 1.7 83 83 W 6 9 29.86 1011 10 16 0.01 0.25
10:53 pm 22:53 Cloudy with Light Rain 42 5.6 35 1.7 76 76 W 13 20 29.86 1011 10 16 0.00 0.00
11:04 pm 23:04 Cloudy with Light Rain 38 3.3 33 0.6 83 83 NNW 24 39 29.90 1013 3 4 0.02 0.51
11:12 pm 23:12 Cloudy with Light Snow 35 1.7 32 0 89 89 NNW 12 19 29.89 1012 2 2 0.04 1.02
11:16 pm 23:16 Cloudy with Light Rain 35 1.7 33 0.6 93 93 NW 7 11 29.89 1012 4 6 0.05 1.27
11:34 pm 23:34 Cloudy 37 2.8 34 1.1 89 89 VRB 3 6 29.88 1012 10 16 0.05 1.27
11:53 pm 23:53 Cloudy 37 2.8 35 1.7 93 93 WSW 3 6 29.86 1011 10 16 0.05 1.27

Powered by AerisWeather